STARLINK-3323, 50804

Orbit data source: Space-Track

STARLINK-3323, 50804 is a payload satellite owned by SpaceX/Seattle (US) in LEO that was launched on Thu, 06 Jan 2022 UTC via an FALCON 9 launch vehicle from the Air Force Eastern Test Range (AFETR). Payload-class satellites include a variety of spacecraft equipped with specific instruments for various scientific and technological missions. These include communications satellites like Starlink; space stations such as the ISS; scientific satellites like the Hubble; Earth observation satellites from companies like Planet Labs, Umbra, and HawkEye 360; GPS; miniature CubeSats for education and research; and military/defense satellites.

Loading next visibility...
Identifier
50804, 2022-001B
Orbit
LEO
Country
Flag of USUS
Related business
Manufacturer
SpaceX/Seattle
Mission
Operational Commercial Communications
Bus & Motor
STARLINK, Unknown motor
Mass
297 kg wet, ~275 kg dry
Launch date (UTC)
2022-01-06 (4 years ago)
Launch vehicle
FALCON 9
Launch site
Air Force Eastern Test Range (AFETR)
Object type
Payload
Rocket body
Debris
Shape & HBR
Box + 1 Pan, 10.1 m
Radar Cross Section
13.562 m², Large (>1 m²)

Expand to show TLE details & history
Last TLE update: 2 days ago

TLE from 2 days ago
0 STARLINK-3323
1 50804U 22001B   26170.96359615 -.00000380  00000-0 -58141-5 0  9999
2 50804  53.1619  59.8844 0001213  97.1185 262.9944 15.08838032245982
Epoch: 2026-06-19T23:07Z
TLE epoch observation values (Epoch: 2026-06-19T23:07:34.707Z)
Latitude
-0.00005°
Longitude
164.80472°
Altitude
540.743 km
Speed
7.593 km/s
True Right ascension
03h 59m 32s
True Declination
0° 00' 00"
Sunlit
Object was in daylight at epoch
Visualization orbit readout
Latitude
Unknown
Longitude
Unknown
Altitude
Unknown
Speed
Unknown
Apparent Right ascension
Unknown
Apparent Declination
Unknown
Sunlit
N/A
Visualization observer readout
Local Sidereal Time
21:32:34
Azimuth
Unknown
Elevation
Unknown
Doppler factor
Unknown
Orbital elements
Apogee altitude
540.842 km
Perigee altitude
539.164 km
Semi-major axis
6,918.14 km
Eccentricity
0.00012
Inclination
53.1619°
RAAN
59.8844°
Arg. of periapsis
97.1185°
True anomaly
262.9806°
Mean anomaly
262.9944°
Eccentric anomaly
262.9875°
Mean motion
3.77189 °/min
Orbital period
95.44 mins
BSTAR
-0.0000058141
Loading maneuver chart data...
Computing Atmospheric mass density...
Loading historical data...
Loading historical data...
Loading historical data...
Loading historical data...
Loading historical data...
Loading historical data...
Loading historical data...

Documentation

Showing up to 5 results
|